Overview Statistics Trail Chart Weather Telemetry Raw packets
 

This is the latest recevied weather packets stored in our database for station/object KG7FOQ-13. If no packets are shown the sender has not sent any weather packets the latest 10 day(s).

<< 87 88 89 90 91 92 93 >>
Time Temp. Humidity Pressure Rain* Wind** Luminosity Snow
1787956976 23.33° C 47% 1017 hPa 0 mm - - -
1787956675 23.89° C 46% 1017 hPa 0 mm - - -
1787956374 24.44° C 48% 1016.9 hPa 0 mm - - -
1787956074 25° C 48% 1016.9 hPa 0 mm - - -
1787955773 24.44° C 46% 1016.7 hPa 0 mm - - -
1787955472 25° C 43% 1016.9 hPa 0 mm - - -
1787955172 25.56° C 36% 1016.9 hPa 0 mm - - -
1787954872 25.56° C 35% 1017 hPa 0 mm - - -
1787954570 25° C 36% 1017 hPa 0 mm - - -
1787954270 25° C 36% 1017.1 hPa 0 mm - - -
1787953969 25.56° C 37% 1017.1 hPa 0 mm - - -
1787953669 25° C 36% 1017.1 hPa 0 mm - - -
1787953368 25.56° C 35% 1017.1 hPa 0 mm - - -
1787953067 25.56° C 32% 1017.1 hPa 0 mm - - -
1787952768 26.11° C 35% 1017.1 hPa 0 mm - - -
1787952466 26.11° C 31% 1017.3 hPa 0 mm - - -
1787952166 26.67° C 28% 1017.4 hPa 0 mm - - -
1787951866 26.67° C 28% 1017.4 hPa 0 mm - - -
1787951565 26.67° C 25% 1017.4 hPa 0 mm - - -
1787951264 26.67° C 28% 1017.4 hPa 0 mm - - -
1787950964 26.67° C 26% 1017.3 hPa 0 mm - - -
1787950664 26.11° C 31% 1017.3 hPa 0 mm - - -
1787950363 26.67° C 32% 1017.2 hPa 0 mm - - -
1787950135 26.11° C 37% 1017.4 hPa 0 mm - - -
1787950062 26.11° C 37% 1017.4 hPa 0 mm - - -

* Rain latest hour (hover to see other rain measurements)
** Current wind speed in m/s (hover to see current wind gust speed)